GW6464 Weather Reports


time (UTC)temp
F
wind
direction
speed
knots
gust
knots
rain 1hr
in
rain 24hr
in
rain mn
in
humidity
%
barometer
mb
20260504130510 46 352 5.2 9.6 0.00 0.08 0.00 44 1015.0
20260504110506 45 330 1.7 5.2 0.00 0.08 0.00 46 1012.2
20260504100510 51 292 0.0 1.7 0.00 0.08 0.00 37 1009.3
20260504082006 53 288 0.0 1.7 0.00 0.08 0.00 35 1008.8
20260504081514 53 288 0.0 2.6 0.00 0.08 0.00 36 1008.8
20260504081010 53 288 0.0 2.6 0.00 0.08 0.00 34 1008.7
20260504080503 53 252 0.0 2.6 0.00 0.08 0.00 34 1008.8
20260504050504 56 250 0.9 2.6 0.00 0.08 0.08 27 1008.2
20260504050017 56 248 0.9 2.6 0.00 0.08 0.08 28 1008.2
20260504045510 55 248 0.9 2.6 0.00 0.08 0.08 29 1008.1
20260504045003 55 242 0.9 2.6 0.00 0.08 0.08 29 1008.2
20260504044515 55 242 1.7 2.6 0.00 0.08 0.08 30 1008.2
20260504044011 55 241 0.9 3.5 0.00 0.08 0.08 31 1008.3
20260504043508 55 241 0.0 3.5 0.00 0.08 0.08 31 1008.3
20260504043011 55 244 1.7 5.2 0.00 0.08 0.08 32 1008.3
20260504042508 55 238 0.0 5.2 0.00 0.08 0.08 33 1008.3
20260504042009 55 238 0.9 3.5 0.00 0.08 0.08 33 1008.4
20260504041508 56 240 0.9 2.6 0.00 0.08 0.08 35 1008.5
20260504041007 55 240 0.9 3.5 0.00 0.08 0.08 34 1008.5
20260504040508 56 239 1.7 3.5 0.00 0.08 0.08 34 1008.5
20260504040026 56 240 0.9 2.6 0.00 0.08 0.08 34 1008.5
20260504035505 56 238 0.9 2.6 0.00 0.08 0.08 35 1008.5
20260504035007 56 231 0.9 2.6 0.00 0.08 0.08 35 1008.6
20260504034522 56 236 0.9 2.6 0.00 0.08 0.08 35 1008.7
20260504034010 56 236 0.9 3.5 0.00 0.08 0.08 35 1008.7
20260504033506 56 235 0.9 3.5 0.00 0.08 0.08 35 1008.8
20260504033018 57 232 0.9 3.5 0.00 0.08 0.08 34 1008.7
20260504032507 57 236 0.9 3.5 0.00 0.08 0.08 33 1008.7
20260504032007 57 234 0.9 3.5 0.00 0.08 0.08 33 1008.7
20260504031516 57 239 0.0 2.6 0.00 0.08 0.08 34 1008.7
20260504031010 57 233 0.9 2.6 0.00 0.08 0.08 34 1008.8
20260504030512 57 231 0.0 1.7 0.00 0.08 0.08 35 1008.8
20260504030013 57 231 0.0 2.6 0.00 0.08 0.08 35 1008.9
20260504025505 57 231 0.0 2.6 0.00 0.08 0.08 35 1008.8
20260504025011 57 230 0.9 3.5 0.00 0.08 0.08 36 1008.8
20260504024512 57 232 0.0 4.3 0.00 0.08 0.08 37 1008.8
20260504024006 57 238 0.9 4.3 0.00 0.08 0.08 37 1008.9
20260504023506 56 232 0.9 2.6 0.00 0.08 0.08 38 1008.9
20260504023025 56 248 0.9 3.5 0.00 0.08 0.08 39 1008.8
20260504022506 57 251 0.0 3.5 0.00 0.08 0.08 38 1008.8
20260504022009 57 328 0.0 1.7 0.00 0.08 0.08 37 1008.7
20260504021525 57 328 0.0 1.7 0.00 0.08 0.08 38 1008.7
20260504021008 57 328 0.0 2.6 0.00 0.08 0.08 38 1008.7
20260504020506 59 339 0.0 2.6 0.00 0.08 0.08 36 1008.7
20260504020026 60 352 0.0 1.7 0.00 0.08 0.08 34 1008.8
20260504015510 62 352 0.0 0.9 0.00 0.08 0.08 28 1008.9
20260504015008 62 352 0.0 0.9 0.00 0.08 0.08 29 1008.9
20260504014518 61 352 0.0 0.9 0.00 0.08 0.08 33 1008.9
20260504014013 63 352 0.0 0.9 0.00 0.08 0.08 28 1008.9
20260504013510 63 352 0.0 0.9 0.00 0.08 0.08 28 1009.0
20260504013028 63 352 0.0 0.9 0.00 0.08 0.08 29 1009.0
20260504012506 64 352 0.0 0.9 0.00 0.08 0.08 30 1009.0
20260504012015 64 355 0.0 0.9 0.00 0.08 0.08 28 1009.1
20260504011510 64 352 0.0 3.5 0.00 0.08 0.08 26 1009.1
20260504011012 65 352 0.0 3.5 0.00 0.08 0.08 25 1009.2
20260504010514 65 352 0.9 4.3 0.00 0.08 0.08 24 1009.2
20260504010026 65 352 1.7 4.3 0.00 0.08 0.08 24 1009.2
20260504005505 66 352 1.7 5.2 0.00 0.08 0.08 24 1009.3
20260504005006 66 352 1.7 5.2 0.00 0.08 0.08 23 1009.3
20260504004527 66 340 2.6 5.2 0.00 0.08 0.08 21 1009.3
20260504004007 66 336 2.6 7.0 0.00 0.08 0.08 22 1009.4
20260504003511 66 348 2.6 7.0 0.00 0.08 0.08 20 1009.4
20260504003036 67 360 3.5 7.0 0.00 0.08 0.08 21 1009.5
20260504002510 67 352 2.6 5.2 0.00 0.08 0.08 22 1009.5
20260504002007 67 360 2.6 5.2 0.00 0.08 0.08 20 1009.6
20260504001520 67 336 3.5 7.8 0.00 0.08 0.08 20 1009.6
20260504001009 67 319 4.3 7.8 0.00 0.08 0.08 19 1009.6
20260504000509 68 5 4.3 7.8 0.00 0.08 0.08 17 1009.7
20260504000004 68 13 2.6 7.0 0.00 0.08 0.08 18 1009.7
20260503235503 68 307 1.7 7.0 0.00 0.08 0.08 16 1009.8
20260503235003 68 351 3.5 10.4 0.00 0.08 0.08 20 1009.9
20260503234503 68 320 3.5 10.4 0.00 0.08 0.08 17 1009.9
20260503234003 68 348 4.3 8.7 0.00 0.08 0.08 17 1009.8
20260503233505 68 341 3.5 11.3 0.00 0.08 0.08 16 1009.9
20260503233002 68 11 6.1 11.3 0.00 0.08 0.08 17 1009.9
20260503232503 68 342 7.0 9.6 0.00 0.08 0.08 17 1010.1
20260503232003 68 348 5.2 10.4 0.00 0.08 0.08 19 1010.1
20260503231506 68 320 2.6 10.4 0.00 0.08 0.08 19 1010.1
20260503231004 68 308 2.6 11.3 0.00 0.08 0.08 21 1010.1
20260503230509 68 309 4.3 11.3 0.00 0.08 0.08 20 1010.2
20260503230004 68 328 4.3 10.4 0.00 0.08 0.08 22 1010.3
20260503225503 68 340 4.3 11.3 0.00 0.08 0.08 22 1010.4
20260503225005 68 311 2.6 11.3 0.00 0.08 0.08 22 1010.5
20260503224503 68 344 5.2 11.3 0.00 0.08 0.08 24 1010.6
20260503224005 68 26 3.5 10.4 0.00 0.08 0.08 26 1010.5
20260503223503 68 360 3.5 10.4 0.00 0.08 0.08 23 1010.7
20260503223004 68 9 7.0 10.4 0.00 0.08 0.08 25 1010.7
20260503222504 68 360 1.7 10.4 0.00 0.08 0.08 24 1010.7
20260503222004 68 344 3.5 14.8 0.00 0.08 0.08 27 1010.8
20260503221506 68 347 6.1 14.8 0.00 0.08 0.08 28 1010.8
20260503221004 68 331 3.5 8.7 0.00 0.08 0.08 26 1010.8
20260503220504 67 10 3.5 5.2 0.00 0.08 0.08 27 1010.9
20260503220016 66 31 1.7 4.3 0.00 0.08 0.08 32 1011.0
20260503215502 65 320 0.9 3.5 0.00 0.08 0.08 28 1011.0
20260503215003 65 325 0.9 3.5 0.00 0.08 0.08 31 1011.1
20260503214503 65 345 1.7 5.2 0.00 0.08 0.08 31 1011.2
20260503214003 66 40 0.9 5.2 0.00 0.08 0.08 29 1011.3
20260503213504 65 334 0.0 5.2 0.00 0.08 0.08 30 1011.5
20260503213011 66 338 1.7 5.2 0.00 0.08 0.08 27 1011.7
20260503212508 67 341 1.7 4.3 0.00 0.08 0.08 26 1011.8
20260503212004 66 342 0.9 4.3 0.00 0.08 0.08 29 1011.7
20260503211505 67 224 0.0 2.6 0.00 0.08 0.08 26 1011.8
20260503211004 65 10 0.0 7.0 0.00 0.08 0.08 32 1011.9
20260503210504 66 235 1.7 7.0 0.00 0.08 0.08 27 1012.1
20260503210005 66 244 3.5 7.0 0.00 0.08 0.08 31 1012.2
20260503205504 66 225 2.6 7.8 0.00 0.08 0.08 31 1012.2
20260503205003 66 220 2.6 7.8 0.00 0.08 0.08 33 1012.3
20260503204508 65 242 3.5 8.7 0.00 0.08 0.08 36 1012.4
20260503204003 65 225 3.5 8.7 0.00 0.08 0.08 34 1012.4
20260503203503 67 232 3.5 9.6 0.00 0.08 0.08 33 1012.7
20260503203006 67 236 2.6 9.6 0.00 0.08 0.08 29 1012.8
20260503202503 67 295 2.6 9.6 0.00 0.08 0.08 25 1012.8
20260503202005 66 13 4.3 9.6 0.00 0.08 0.08 30 1012.9
20260503201509 64 352 0.9 9.6 0.00 0.08 0.08 29 1012.8
20260503201004 66 311 6.1 9.6 0.00 0.08 0.08 27 1012.9
20260503200503 65 5 1.7 7.8 0.00 0.08 0.08 30 1013.0
20260503200010 66 322 2.6 11.3 0.00 0.08 0.08 27 1013.0
20260503195504 65 324 3.5 11.3 0.00 0.08 0.08 27 1013.0
20260503195004 67 323 2.6 11.3 0.00 0.08 0.08 27 1013.0
20260503194512 67 24 5.2 9.6 0.00 0.08 0.08 29 1013.0
20260503194004 65 350 1.7 8.7 0.00 0.08 0.08 27 1013.3
20260503193509 67 5 4.3 8.7 0.00 0.08 0.08 30 1013.3
20260503193008 67 343 3.5 7.0 0.00 0.08 0.08 31 1013.3
20260503192504 67 344 1.7 5.2 0.00 0.08 0.08 29 1013.3
20260503192003 67 325 1.7 9.6 0.00 0.08 0.08 31 1013.4
20260503191510 66 10 1.7 9.6 0.00 0.08 0.08 27 1013.4
20260503191006 66 355 1.7 5.2 0.00 0.08 0.08 30 1013.4
20260503190504 65 305 1.7 8.7 0.00 0.08 0.08 29 1013.6
20260503190010 64 332 3.5 9.6 0.00 0.08 0.08 30 1013.7
20260503185503 63 337 1.7 9.6 0.00 0.08 0.08 29 1013.7
20260503185004 64 352 2.6 9.6 0.00 0.08 0.08 33 1013.9
20260503184516 64 343 0.9 4.3 0.00 0.08 0.08 33 1013.9
20260503184003 63 28 2.6 10.4 0.00 0.08 0.08 31 1013.9
20260503183504 63 43 1.7 10.4 0.00 0.08 0.08 33 1014.0
20260503183011 63 350 3.5 9.6 0.00 0.08 0.08 29 1014.0
20260503182505 63 352 5.2 9.6 0.00 0.08 0.08 30 1014.2
20260503182004 63 29 3.5 7.8 0.00 0.08 0.08 34 1014.2
20260503181512 63 346 2.6 6.1 0.00 0.08 0.08 32 1014.2
20260503181005 62 331 0.9 6.1 0.00 0.08 0.08 29 1014.3
20260503180507 62 5 1.7 5.2 0.00 0.08 0.08 32 1014.4
20260503180009 62 347 1.7 7.8 0.00 0.08 0.08 31 1014.5
20260503175506 62 340 3.5 8.7 0.00 0.08 0.08 36 1014.5
20260503175006 62 128 1.7 8.7 0.00 0.08 0.08 35 1014.6
20260503174512 62 133 3.5 7.8 0.00 0.08 0.08 34 1014.6
20260503174005 61 194 3.5 7.8 0.00 0.08 0.08 36 1014.7
20260503173506 61 175 3.5 8.7 0.00 0.08 0.08 37 1014.7
20260503173011 61 159 2.6 8.7 0.00 0.08 0.08 36 1014.6
20260503172504 60 125 2.6 8.7 0.00 0.08 0.08 41 1014.7
20260503172006 60 163 2.6 8.7 0.00 0.08 0.08 41 1014.8
20260503171515 59 143 3.5 9.6 0.00 0.08 0.08 43 1014.7
20260503171004 59 149 4.3 9.6 0.00 0.08 0.08 42 1014.9
20260503170507 59 142 4.3 8.7 0.00 0.08 0.08 45 1014.8
20260503151006 56 24 1.7 5.2 0.00 0.00 0.00 40 1015.7
20260503150506 55 345 2.6 5.2 0.00 0.00 0.00 41 1015.8